Regional Weather Roundup
Issued by NWS

Home | Current Version | Previous Version | Graphics & Text | Print | Product List | Glossary On
Versions: 1 2 3 4 5 6 7 8 9 10 11 12 13 14 15 16 17 18 19 20 21 22 23 24 25 26 27 28 29 30 31 32 33 34 35 36 37 38 39 40 41 42 43 44 45 46 47 48 49 50
000
ASUS43 KMPX 231501
RWRMN
WEATHER ROUNDUP FOR MINNESOTA
NATIONAL WEATHER SERVICE TWIN CITIES/CHANHASSEN MN
1000 AM CDT TUE AUG 23 2016


NOTE: "FAIR" INDICATES FEW OR NO CLOUDS BELOW 12,000 FEET WITH NO
SIGNIFICANT WEATHER AND/OR OBSTRUCTIONS TO VISIBILITY. N/A MEANS
CURRENT SKY AND/OR WEATHER CONDITIONS ARE NOT AVAILABLE.

MNZ060>063-068>070-231600-
   Twin Cities Metro

CITY           SKY/WX    TMP DP  RH WIND       PRES   REMARKS
TWIN CITIES    MOSUNNY   75  61  61 S13       29.94F
ST PAUL        SUNNY     74  63  68 S14       29.95S
CRYSTAL        SUNNY     76  60  57 S13       29.91F
LAKEVILLE      MOSUNNY   72  63  73 S12G20    29.95S
EDEN PRAIRIE   SUNNY     77  63  61 S13       29.92F
LAKEVILLE      MOSUNNY   72  63  73 S12G20    29.95S
SOUTH ST PAUL  SUNNY     74  61  65 S10       29.95S
LAKE ELMO      FAIR      73  63  68 S14G20    29.97S
$$
MNZ001>005-007-008-013>017-022>024-027-028-231600-
   Northwest Minnesota

CITY           SKY/WX    TMP DP  RH WIND       PRES   REMARKS
BEMIDJI        CLOUDY    72  62  71 S10       29.79S
HALLOCK        SUNNY     73  66  78 S13       29.63F
ROSEAU         CLOUDY    72  64  78 E7        29.70F
WARROAD        CLOUDY    72  66  83 E7        29.73F
THIEF RVR FALL CLOUDY    72  62  71 S16       29.69S
CROOKSTON      CLOUDY    72  63  73 S13       29.67R
FOSSTON        CLOUDY    70  61  73 S14G20    29.73F
DETROIT LAKES  MOSUNNY   73  61  64 S13       29.79S
MOORHEAD       SUNNY     73  63  68 S14G20    29.72F
PARK RAPIDS    CLOUDY    74  61  63 S9        29.82R
MAHNOMEN       FAIR      73  62  69 S15G24    29.75S
$$
MNZ006-009>011-018-025>026-231600-
   North Central Minnesota

CITY           SKY/WX    TMP DP  RH WIND       PRES   REMARKS
BAUDETTE       CLOUDY    74  64  71 S9G20     29.76R
FLAG ISLAND    PTSUNNY   72  66  83 CALM      29.79R HAZE
INTL FALLS     CLOUDY    71  63  75 MISG      29.82R
WASKISH        CLOUDY    73  64  73 S7        29.77F
BIG FORK       PTSUNNY   73  63  68 S9        29.83R
LONGVILLE      SUNNY     73  63  68 S8        29.84S
GRAND RAPIDS   MOSUNNY   72  63  73 S14G20    29.86S
CRANE LAKE     MOSUNNY   70  63  78 S8        29.86R
ORR            CLOUDY    70  59  68 S7G17     29.82S
COOK           MOSUNNY   70  63  78 S9        29.87R
WALKER         FAIR      72  61  69 S14       29.81S
$$
MNZ012-019>021-037-231600-
   Northeast Minnesota

CITY           SKY/WX    TMP DP  RH WIND       PRES   REMARKS
DULUTH         MOSUNNY   74  63  68 S13       29.91S
ELY            CLOUDY    72  61  68 S10G16    29.89S
HIBBING        MOSUNNY   69  61  75 S8G17     29.87S
EVELETH        CLOUDY    73  62  69 S10G16    29.90S
DULUTH HARBOR  SUNNY     75  64  69 S16       29.89F
TWO HARBORS    SUNNY     75  64  69 S13       29.90S
SILVER BAY     CLOUDY    73  63  68 S10G18    29.91R
G MARAIS ARPRT CLOUDY    66  59  77 S8        29.96F
$$
MNZ029>031-032-039>041-046>048-054>057-064-231600-
   West Central Minnesota

CITY           SKY/WX    TMP DP  RH WIND       PRES   REMARKS
FERGUS FALLS     N/A     73  63  68 S15       29.78S
WHEATON        MOSUNNY   75  64  69 S15G21    29.76S
MORRIS         SUNNY     75  64  69 S15G22    29.78F
ALEXANDRIA     SUNNY     73  62  68 S18       29.84S
ELBOW LAKE     FAIR      73  63  71 S20       29.79R
WADENA         MOSUNNY   73  63  68 S13       29.81F
GLENWOOD       SUNNY     73  64  73 S9G20     29.85S
APPLETON       SUNNY     75  63  64 S14       29.80S
BENSON         SUNNY     75  63  64 SW14      29.82S
ORTONVILLE     SUNNY     75  63  64 S14       29.78S
MADISON        SUNNY     75  64  69 S13       29.80S
WILLMAR        FAIR      75  64  69 S8        29.87S
$$
MNZ033>034-036-042>043-049>051-058-059-231600-
   Central Minnesota

CITY           SKY/WX    TMP DP  RH WIND       PRES   REMARKS
ST CLOUD       SUNNY     73  64  73 S15       29.88S
SAUK CENTRE    FAIR      74  64  69 S13       29.85S
PAYNESVILLE    SUNNY     73  63  70 S12G20    29.87F
AITKIN         MOSUNNY   75  61  60 S13       29.86S
PINE RIVER     SUNNY     73  63  68 S12G17    29.88S
BRAINERD       MOSUNNY   72  63  73 S10       29.86S
STAPLES        MOSUNNY   72  63  73 S13       29.84S
LONG PRAIRIE   FAIR      72  63  73 SE10      29.85S
LITTLE FALLS   MOSUNNY   73  61  64 S8        29.86F
LITCHFIELD     SUNNY     73  66  78 SE8       29.89S
BUFFALO        SUNNY     73  61  64 S13G18    29.92S
MAPLE LAKE     SUNNY     74  64  72 S8G17     29.91S
HUTCHINSON     SUNNY     72  65  77 S10G17    29.92S
$$
MNZ037-044-045-052-053-231600-
   East Central Minnesota

CITY           SKY/WX    TMP DP  RH WIND       PRES   REMARKS
PRINCETON      SUNNY     75  63  64 S13       29.90S
MORA           SUNNY     73  61  64 S15G21    29.92S
CAMBRIDGE      SUNNY     77  63  61 S13G18    29.90S
RUSH CITY      SUNNY     73  63  69 S10G16    29.92S
MOOSE LAKE     SUNNY     72  61  68 S8G18     29.89S
HINCKLEY       FAIR      73  64  73 S12G17    29.92S
CLOQUET        SUNNY     72  61  68 S14G21    29.91S
MCGREGOR       MOSUNNY   73  63  68 S13       29.89S
$$
MNZ071>073-080-081-089-090-097-098-231600-
   Southwest Minnesota

CITY           SKY/WX    TMP DP  RH WIND       PRES   REMARKS
MONTEVIDEO     SUNNY     75  64  69 SW13G22   29.84S
GRANITE FALLS  SUNNY     75  66  74 S15G21    29.86S
CANBY          SUNNY     75  64  67 S10G18    29.83S
MARSHALL       MOSUNNY   75  64  68 S17       29.84F
REDWOOD FALLS  SUNNY     74  63  68 S16       29.88S
OLIVIA         SUNNY     73  64  73 S17       29.87S
PIPESTONE      PTSUNNY   70  63  78 S12G20    29.88S
WINDOM         PTSUNNY   72  63  73 S14G23    29.91F
WORTHINGTON    CLOUDY    71  65  81 S12G18    29.92S
JACKSON        MOSUNNY   72  61  68 S12G22    29.94F
TRACY          MOSUNNY   73  65  74 S16G26    29.88R
$$
MNZ065>067-074>077-082>085-091>093-231600-
   South Central Minnesota

CITY           SKY/WX    TMP DP  RH WIND       PRES   REMARKS
MANKATO        MOSUNNY   72  63  73 S10G18    29.95R
NEW ULM          N/A     72  64  78 S15       29.91S
ST JAMES       PTSUNNY   66  59  77 S12       29.93S
GLENCOE        SUNNY     73  66  77 S10G16    29.91F
FARIBAULT      MOSUNNY   72  63  73 SE13      29.97F
OWATONNA       MOSUNNY   72  63  73 S16       29.98S
WASECA         MOSUNNY   72  63  73 S12G20    29.98S
ALBERT LEA     MOSUNNY   72  64  78 S9        30.00S
$$
MNZ078>079-086>088-094>096-231600-
   Southeast Minnesota

CITY           SKY/WX    TMP DP  RH WIND       PRES   REMARKS
ROCHESTER      MOSUNNY   72  63  73 S14G23    30.04S
RED WING       MOSUNNY   75  61  60 SE8       29.98S
DODGE CENTER   MOSUNNY   73  63  68 S16       30.02S
WINONA         MOSUNNY   73  61  64 S3        30.05R
AUSTIN         MOSUNNY   70  63  78 S10       30.03S
PRESTON        MOSUNNY   67  61  78 S9        30.07S
$$
ABBREVIATIONS USED IN REMARKS
   TC - TEMPERATURES IN CELSIUS
  WCI - WIND CHILL INDEX
   HX - HEAT INDEX
  VSB - VISIBILITY
$$




USA.gov is the U.S. government's official web portal to all federal, state and local government web resources and services.